Torna al catalogo

STARLINK-35728

AttivoComunicazioniVLEO
NORAD 66544·PAYLOAD·🇺🇸 United States

Lanciato Nov 19, 2025 da Cape Canaveral Space Force Station

Loading…

Prossimi Passaggi (prossime 24 ore)

TLE

AggiornatoSource: CelesTrak SupGP

Epoca: Sep 14, 2026, 23:04 UTC

1 66544C 25265AE  26257.96159722  .00031939  00000+0  11570-2 0  2575
2 66544  42.9998 288.8101 0001427 262.8783  58.4067 15.27557842    13

Traccia STARLINK-35728 in tempo reale con AllMySat

Download on the App Store